Tracking 27380 objects as of 6-Jun-2023
HD Live streaming from Space Station
objects crossing your sky now

OPS 4682 DEB

Track OPS 4682 DEB now!
10-day predictions


NORAD ID: 38377
Int'l Code: 1965-027CE
Perigee: 1,256.9 km
Apogee: 1,312.8 km
Inclination: 90.3 °
Period: 111.1 minutes
Semi major axis: 7655 km
RCS: 0.007 m2 (small)
Launch date: April 3, 1965
Source: United States (US)
Launch site: AIR FORCE WESTERN TEST RANGE (AFWTR)

Note: This is SATELLITE DEBRIS
Your satellite tracking list
Your tracking list is empty




NASA's NSSDC Master Catalog

Two Line Element Set (TLE):
1 38377U 65027CE  23154.28753536  .00000546  00000-0  18884-2 0  9998
2 38377  90.2511 346.1065 0036502 145.2429 215.1086 12.96024950460300
Source of the keplerian elements: AFSPC